Regional Weather Roundup
Issued by NWS Pendleton, OR

Home | Current Version | Previous Version | Text Only | Print | Product List | Glossary On
Versions: 1 2 3 4 5 6 7 8 9 10 11 12 13 14 15 16 17 18 19 20 21 22 23 24 25 26 27 28 29 30 31 32 33 34 35 36 37 38 39 40 41 42 43 44 45 46 47 48 49 50
000
ASUS46 KPDT 201725
RWRPDT
PENDLETON REGIONAL WEATHER ROUNDUP
NATIONAL WEATHER SERVICE PENDLETON OREGON
1000 AM PDT MON OCT 20 2014

NOTE: FAIR INDICATES FEW OR NO CLOUDS BELOW 12,000 FEET WITH NO
SIGNIFICANT WEATHER AND/OR OBSTRUCTIONS TO VISIBILITY.

# INDICATES UNOFFICIAL STATION AND DATA

WAZ520-201810-
EAST SLOPES OF WASHINGTON CASCADES

CITY            SKY/WX      TMP DP  RH  WIND    PRES   REMARKS
#BUMPING DAM    N/A         49  N/A N/A S1      N/A
#CLE ELUM HS    N/A         49  49  100 CALM    29.73S
#CLE ELUM 2NW   N/A         50  49  96  S2      N/A
#CLE ELUM LAKE  N/A         N/A N/A N/A S2      29.68R
#CLIFFDEL 2NW   N/A         47  47  100 CALM    N/A
#GLENWOOD       N/A         54  53  96  S2      29.75R
#MANASTASH CYN  N/A         51  48  89  CALM    29.76R
#NELSON         N/A         49  48  96  CALM    29.75S
#NELSON 3SW     N/A         50  49  96  CALM    29.93R
#NILE           N/A         48  47  96  CALM    29.00S
#RONALD 2NW     N/A         50  48  93  CALM    29.65R
#SNOWDEN        N/A         52  48  86  CALM    N/A
#TEANAWAY 4NE   N/A         49  49  100 CALM    N/A
#TROUT LAKE HS  N/A         56  55  96  CALM    N/A
#TROUT LAKE 1NE N/A         53  52  96  CALM    29.75S
$$

WAZ521-201810-
SIMCOE HIGHLANDS

CITY            SKY/WX      TMP DP  RH  WIND    PRES   REMARKS
#CENTERVILLE 4W N/A         54  52  93  NW3     29.55R
#CENTERVILLE 1SWN/A         53  50  89  CALM    29.74R
#GOLDENDALE     N/A         53  52  96  CALM    N/A
#GOLDENDALE 1NE N/A         53  53  100 CALM    N/A
#GOLDENDALE 1S  N/A         53  52  96  CALM    29.77R
#GOLDENDALE 5WNWN/A         54  52  93  CALM    29.75R
#GOODNOE HILLS  N/A         62  53  72  W17     29.71R
#LYLE 6NE       N/A         54  52  93  CALM    29.72S
$$

WAZ026-201810-
KITTITAS VALLEY

CITY            SKY/WX      TMP DP  RH  WIND    PRES   REMARKS
ELLENSBURG AP   LGT RAIN    50  47  89  W3      29.76R FOG
#ELLENSBURG CWU N/A         48  46  93  CALM    29.69R
#ELLENSBURG 3NE N/A         48  47  96  CALM    29.76S
#ELLENSBURG     N/A         51  51  100 W2      N/A
#KITTITAS 3S    N/A         46  45  96  CALM    29.73S
#THORP 6N       N/A         49  48  96  N2      29.72S
$$

WAZ027-201810-
YAKIMA VALLEY

CITY            SKY/WX      TMP DP  RH  WIND    PRES   REMARKS
SUNNYSIDE AP    PTCLDY      54  50  86  CALM    29.76R
YAKIMA AIRPORT  LGT RAIN    52  49  89  CALM    29.76R
YAKIMA-VAGABOND LGT RAIN    54  48  80  NW6     29.76R
#COWICHE 1N     N/A         53  49  86  CALM    29.92R
#DONALD 2NE     N/A         63  51  65  S1      30.07R
#GRANDVIEW      N/A         58  51  77  CALM    29.75S
#MABTON         N/A         52  51  96  CALM    29.75R
#MOXEE 2E       N/A         56  46  69  CALM    29.71S
#NACHES 2SW     N/A         52  50  93  CALM    29.75R
#OUTLOOK DOT    N/A         N/A N/A N/A CALM    N/A
#SELAH 8E       N/A         58  50  75  E5      N/A
#TERRACE HTS    N/A         52  49  89  CALM    29.70R
#TOPPENISH      N/A         55  51  86  CALM    29.65S
#WAPATO 4NE     N/A         63  51  65  S1      30.07R
#WEST VALLEY    N/A         51  49  93  CALM    29.72S
#W YAKIMA       N/A         52  50  93  CALM    29.74R
#WHITE SWAN 5E  N/A         52  50  93  CALM    29.74S
#WILEY CITY 3W  N/A         53  39  59  CALM    29.96S
$$

WAZ028-201810-
LOWER COLUMBIA BASIN...WASHINGTON

CITY            SKY/WX      TMP DP  RH  WIND    PRES   REMARKS
HANFORD         PTCLDY      55  48  77  NE2     29.73S
PASCO           PTCLDY      55  51  86  SE7     29.75S FOG
PROSSER AWOS    N/A         57  54  90  SW1     29.77S
RICHLAND AWOS   PTCLDY      55  52  90  CALM    29.75R
#BASIN CITY 5SW N/A         54  51  90  E3      29.75R
#BENTON CITY    N/A         54  51  90  CALM    29.66R
#CONNELL 5N     N/A         54  49  83  E1      29.74S
#CONNELL 5NW    N/A         52  49  89  CALM    29.70S
#ELTOPIA        N/A         57  54  90  SE1     29.71R
#ELTOPIA 6NW    N/A         53  50  89  SE2     28.72R
#KENNEWICK 3S   N/A         58  55  90  CALM    29.74R
#PASCO-BROADMOORN/A         55  53  93  SE1     29.64S
#PATERSON       N/A         54  49  83  CALM    29.75R
#SAGEMOOR 2W    N/A         54  50  86  CALM    29.59S
#TOUCHET 2S     N/A         48  47  96  CALM    29.75S
#WEST PASCO     N/A         55  52  90  CALM    29.75R
$$

WAZ029-201810-
FOOTHILLS OF THE BLUES...WASHINGTON

CITY            SKY/WX      TMP DP  RH  WIND    PRES   REMARKS
WALLA WALLA AP  PTCLDY      62  50  65  CALM    29.76R
#LOWDEN 2SE     N/A         50  48  93  CALM    29.72S
#PLEASANT VIEW 1N/A         61  50  67  SE3     29.76R
#SUDBURY        N/A         60  N/A N/A CALM    N/A
#WHITMAN COLLEGEN/A         64  52  65  CALM    29.79R
#WAITSBURG 8N   N/A         66  38  36  S5      29.74R
#WALLA WALLA 5E N/A         64  53  67  CALM    N/A
#WALLA WALLA U  N/A         57  50  77  CALM    29.75R
#WHITMAN MISSIONN/A         50  49  96  CALM    29.77R
$$

WAZ030-201810-
BLUE MOUNTAINS...WASHINGTON

CITY            SKY/WX      TMP DP  RH  WIND    PRES   REMARKS
$$

ORZ009-041-WAZ024-201810-
COLUMBIA RIVER GORGE

CITY            SKY/WX      TMP DP  RH  WIND    PRES   REMARKS
HOOD RIVER AP   CLOUDY      57  55  93  CALM    29.78S
THE DALLES AP   LGT RAIN    58  56  93  S5      29.78R FOG
#ARLINGTON AIRPON/A         62  54  75  W12     29.97F
#ARLINGTON HS   N/A         64  53  67  W7      29.66F
#CELILO DOT     N/A         58  55  90  SW3     N/A
#LYLE           N/A         57  55  93  NE3     29.78R
#MARYHILL 2W    N/A         59  57  93  E1      N/A
#MOSIER 1S      N/A         56  55  96  CALM    N/A
#MURDOCK        N/A         59  57  93  CALM    29.79R
#RUFUS DOT      N/A         64  50  60  W15     N/A

$$

ORZ510-201810-
NORTH CENTRAL OREGON

CITY            SKY/WX      TMP DP  RH  WIND    PRES   REMARKS
#CHENOWITH 1W   N/A         53  52  96  NW15    N/A
#COW CYN RST AREN/A         56  43  62  SW3     N/A
#DUFUR 9E       N/A         52  51  96  NW2     29.79R
#GRASS VALLEY   N/A         54  54  100 NW1     N/A
#GRASS VALLEY 1SN/A         53  51  93  CALM    29.80R
#KENT DOT       N/A         54  44  69  W7      N/A
#MAUPIN SCHOOL  N/A         51  47  86  CALM    28.69R
#MORO SCHOOL    N/A         56  55  96  W12     29.80S
#SHANIKO 5WSW   N/A         52  43  71  NW8     N/A
#SHANIKO 4NW    N/A         51  47  86  NW8     29.81R
#TYGH VALLEY 2NEN/A         51  49  93  CALM    29.77R
#WAPANITIA AIRPON/A         53  50  89  SW2     29.77R
#WASCO DOT      N/A         61  52  72  SW3     N/A
#WASCO 5NE      N/A         59  54  83  W5      29.75S
$$

ORZ511-201810-
CENTRAL OREGON

CITY            SKY/WX      TMP DP  RH  WIND    PRES   REMARKS
BEND AIRPORT    PTCLDY      59  41  51  CALM    29.81F
MADRAS AIRPORT  CLOUDY      55  48  77  N5      29.81R
PRINEVILLE AP   PTCLDY      63  43  48  S9      29.80F
REDMOND AIRPORT PTCLDY      60  41  49  CALM    29.79S
#BEND 6E        N/A         62  41  46  CALM    29.64F
#BEND 1SW       N/A         54  45  71  W1      N/A
#BEND-KIM LN    N/A         55  46  72  SW3     29.77F
#CROOKED RVR RANN/A         61  46  58  W6      29.70S
#CULVER         N/A         60  46  60  NW1     29.75S
#LAKE BILLY CHINN/A         54  38  55  NW5     29.86R
#POWELL BUTTE 3EN/A         58  42  55  SE6     N/A
#POWELL BUTTE   N/A         63  44  50  S2      29.45F
#PRINEVILLE 3N  N/A         60  46  60  E6      29.66F
#WARM SPRINGS   N/A         53  50  89  CALM    29.77S


ORZ509-201810-
EAST SLOPES OF OREGON CASCADES

CITY            SKY/WX      TMP DP  RH  WIND    PRES   REMARKS
#BLUE BOX PASS  N/A         46  -4  12  NW2     N/A
#CAMP SHERMAN   N/A         48  46  93  CALM    29.76R
#LA PINE DOT    N/A         54  40  59  E6      N/A
#LA PINE 4NW    N/A         48  42  80  CALM    29.76F
#LAVA BUTTE DOT N/A         56  40  55  SE3     N/A
#SISTERS AIRPOR N/A         52  51  96  CALM    29.91S
#SISTERS ODOT   N/A         53  N/A N/A SW2     N/A
#SISTERS 3N     N/A         52  45  77  CALM    29.83R
#SUNRIVER       N/A         56  47  72  S3      29.59F
#SUNRIVER AP    N/A         51  44  77  W2      29.67F
#SUTTLE LK DOT  N/A         43  43  100 CALM    N/A
#TUMALO 3W      N/A         58  45  62  E3      29.57S
#WANOGA BUTTE D N/A         41  41  100 W8      N/A

$$

ORZ044-201810-
LOWER COLUMBIA BASIN...OREGON

CITY            SKY/WX      TMP DP  RH  WIND    PRES   REMARKS
HERMISTON       PTCLDY      54  46  74  CALM    29.76R
#BOARDMAN SCHOOLN/A         54  50  86  CALM    29.75S
#BOARDMAN 3W    N/A         56  53  90  NE1     29.47S
#BOARDMAN 8SW   N/A         57  51  80  CALM    29.75S
#ECHO 8SW       N/A         58  49  72  CALM    29.73R
#IONE SCHOOL    N/A         54  42  64  E1      29.76F
#IRRIGON 4NW    N/A         55  51  86  CALM    N/A
#UMATILLA SCHOOLN/A         51  51  100 CALM    29.77F
#UMATILLA       N/A         54  47  77  CALM    29.74R
$$

ORZ507-201810-
NORTHERN FOOTHILLS OF THE BLUES

CITY            SKY/WX      TMP DP  RH  WIND    PRES   REMARKS
PENDLETON AIRPT MOCLDY      51  44  77  SE5     29.77R
#ADAMS 3WNW     N/A         61  52  72  CALM    29.73S
#ATHENA         N/A         58  50  75  CALM    29.77S
#CAYUSE         N/A         56  48  74  CALM    29.73R
#HELIX SCHOOL   N/A         60  50  69  W1      29.74R
#HELIX 3N       N/A         60  48  64  N6      29.75R
#HELIX 6SW      N/A         60  49  67  CALM    29.78R
#HOLDMAN 6E     N/A         58  48  69  CALM    29.56R
#M-F GROVE ELEM N/A         61  47  60  CALM    29.75R
#M-FREEWATER 5SEN/A         59  52  78  CALM    29.77R
#PENDLETON DNTN N/A         47  41  79  CALM    28.58S
#PDT AQUATIC CTRN/A         47  39  74  CALM    29.76S
#PDT SUNRIDGE   N/A         45  43  93  CALM    29.78R
#PENDLETON 7NW  N/A         55  46  72  SE2     27.00R
#PILOT ROCK     N/A         56  46  69  CALM    29.79R
#TUTUILLA       N/A         50  47  89  CALM    29.77R
#UMAPINE 2E     N/A         55  51  86  SE1     29.72R
#WESTON SCHOOL  N/A         60  44  55  CALM    29.75R

$$

ORZ508-201810-
SOUTHERN FOOTHILLS OF THE BLUES

CITY            SKY/WX      TMP DP  RH  WIND    PRES   REMARKS
LEXINGTON       PTCLDY      63  48  58  W3      29.80R
#AJAX           N/A         55  46  72  W2      29.75R
#CONDON SCHOOL  N/A         59  51  75  CALM    29.77S
#FOSSIL SCHOOL  N/A         57  45  64  CALM    29.78S
#HEPPNER EOC    N/A         58  46  64  CALM    29.70S
#HEPPNER 4NE    N/A         56  49  77  W2      29.73S
#LEXINGTON 2SE  N/A         60  49  67  CALM    29.75F
#MIKKALO        N/A         60  50  69  W7      29.78S
#OLEX 4N        N/A         61  53  75  W10     29.76S
#RUGGS 5NE      N/A         56  50  80  W7      29.94R
#RUGGS 2SW      N/A         57  48  72  NW5     29.74S

$$

ORZ502-503-201810-
BLUE MOUNTAINS

CITY            SKY/WX      TMP DP  RH  WIND    PRES   REMARKS
MEACHAM         PTCLDY      59  37  44  MISG    29.81S
#BATTLE MTN DOT N/A         58  44  60  SE6     N/A
#HEPPNER 15SE   N/A         57  39  51  E5      29.72S
#LADD CYN SMT   N/A         56  29  35  SE10    N/A
#LADD CREEK ODOTN/A         53  39  59  SW3     N/A
#N POWDER DOT   N/A         62  39  43  S6      N/A
#PIKES PEAK     N/A         59  35  40  S5      27.99S
#UKIAH          N/A         43  36  76  CALM    29.84F
#WESTON 4E      N/A         64  34  33  SE3     29.63S
$$

ORZ505-201810-
JOHN DAY BASIN

CITY            SKY/WX      TMP DP  RH  WIND    PRES   REMARKS
JOHN DAY        PTCLDY      66  28  24  S12     29.84S
#JOHN DAY KJDY  N/A         61  31  32  SW1     29.92R
#DAYVILLE SCHOOLN/A         54  36  50  E1      29.80S
#MT. VERNON 5SE N/A         59  28  30  E6      29.80S
#WINLOCK        N/A         67  42  40  NW9     29.89F
$$

ORZ506-201810-
OCHOCO AND JOHN DAY HIGHLANDS

CITY            SKY/WX      TMP DP  RH  WIND    PRES   REMARKS
#BUCK CREEK DOT N/A         52  39  61  NE5     N/A
#HORSE RIDGE DO N/A         59  40  49  SE15    N/A
#KEYES SMT DOT  N/A         56  37  49  SE7     N/A
#PAULINA SCHOOL N/A         47  37  68  CALM    29.87S
#PINE MTN OBS   N/A         45  40  82  SE22G32 N/A    WCI 37
#PRAIRIE CITY   N/A         68  27  21  S5      29.71F
#SENECA         N/A         58  N/A N/A SE6     N/A
#SENECA 9NW     N/A         45  34  65  CALM    29.83F
$$

ORZ049-201810-
GRANDE RONDE VALLEY

CITY            SKY/WX      TMP DP  RH  WIND    PRES   REMARKS
LA GRANDE       PTCLDY      64  30  28  S9      29.80F
#COVE           N/A         57  40  53  CALM    29.75F
#COVE SCHOOL    N/A         58  38  47  CALM    29.81F
#COVE 6NW       N/A         48  38  68  CALM    29.83S
#ELGIN 3N       N/A         56  39  53  S2      29.56F
#ELGIN 1E       N/A         43  35  73  CALM    N/A
#IMBLER SCHOOL  N/A         63  35  35  SW3     29.84S
#ISLAND CITY 4N N/A         57  56  96  CALM    29.76S
#LADD CYN DOT   N/A         63  34  34  S16     N/A
#UNION 1S       N/A         68  36  31  W5      29.64F
$$

ORZ050-201810-
WALLOWA COUNTY

CITY            SKY/WX      TMP DP  RH  WIND    PRES   REMARKS
JOSEPH AIRPORT  SUNNY       57  32  38  N6      29.86R
#ENTERPRISE HS  N/A         51  37  59  CALM    29.88S
#IMNAHA 10S     N/A         66  34  30  SW7     29.81R
#JOSEPH 3N      N/A         53  37  54  N5      29.88R
#JOSEPH 3W      N/A         58  37  45  E2      29.73R
#LOSTINE        N/A         47  34  60  CALM    29.63R
#MT HOWARD 8000 N/A         49  20  31  SW7G32  29.97R
#PROMISE 1S     N/A         59  37  44  E3      29.83F
#SHEEP RDG 7000 N/A         53  23  31  CALM    29.68R
#WALLOWA SCHOOL N/A         41  35  79  CALM    30.79F



$$



USA.gov is the U.S. government's official web portal to all federal, state and local government web resources and services.